{"data":{"norad_id":61887,"epoch":"2026-09-20T09:55:03.445248Z","epoch_age_seconds":195959,"freshness":"STALE","line1":"1 61887U 24204P   26263.41323432 -.00000053  00000+0  95819-5 0  9998","line2":"2 61887  53.1604 298.1412 0001360  91.6662 268.4496 15.34388583104976","mean_motion":15.34388583,"eccentricity":0.000136,"inclination_deg":53.1604,"raan_deg":298.1412,"arg_perigee_deg":91.6662,"mean_anomaly_deg":268.4496,"bstar":9.5819e-6,"rev_number":10497,"period_min":93.848456378928,"perigee_km":461.80681525985,"apogee_km":463.66753303522,"semimajor_km":6840.8741741475,"source":"CELESTRAK","updated_at":"2026-09-22T09:00:49.447058Z"}}